Simultaneous Nadir Overpasses (SNOs) Predictions

Prediction of SNOs between AQUA and GOES-15 Satellite Orbit:

Table of predicted SNOs for the next 14.0 days since TLE Epoch: 8/26/2023
Index Date Time (AQUA) AQUA Lat,Lon GOES-15 Lat,Lon Distance(km) Time Diff (sec)
1 08/26/2023 16:53:29 0.24, 134.87 0.41, 134.14 83.93 80
2 08/27/2023 05:14:20 -1.21, 129.80 -0.41, 133.57 428.02 80
3 08/29/2023 05:00:01 -0.04, 133.24 -0.41, 131.51 196.18 80
4 08/29/2023 17:20:44 0.98, 128.20 0.40, 131.01 318.73 80
5 08/31/2023 17:06:24 -0.17, 131.64 0.40, 128.94 306.68 80
6 09/01/2023 05:27:15 -0.78, 126.57 -0.40, 128.37 204.83 80
7 09/03/2023 05:12:55 0.41, 130.00 -0.40, 126.29 423.00 80
8 09/03/2023 17:33:37 0.57, 124.98 0.40, 125.78 90.77 80
9 09/06/2023 05:40:07 -0.33, 123.35 -0.39, 123.12 26.20 80
10 09/06/2023 18:00:48 1.30, 118.32 0.38, 122.60 486.38 80
11 09/08/2023 17:46:27 0.09, 121.75 0.38, 120.50 143.33 80
